Altoona, PA

2:34 PM EDT on August 20, 2019 (GMT -0400)
Altoona-Blair County

Weather History for KAOO - May, 2019

Change the Weather History Date:

Monday, May 27, 2019

  Actual Average Record
Temperature  
Mean Temperature 70 °F 61 °F  
Max Temperature 78 °F 72 °F 89 °F (1991)
Min Temperature 61 °F 51 °F 36 °F (1983)
Degree Days  
Heating Degree Days 0 5  
Month to date heating degree days 116 223  
Since 1 July heating degree days 5670 6141  
Cooling Degree Days 5 2  
Month to date cooling degree days 47 18  
Year to date cooling degree days 47 24  
Growing Degree Days 20 (Base 50)    
Moisture  
Dew Point 57 °F    
Average Humidity 64    
Maximum Humidity 87    
Minimum Humidity 40    
Precipitation  
Precipitation 0.00 in 0.12 in 1.56 in (2011)
Month to date precipitation 4.55 3.23  
Year to date precipitation 17.36 13.70  
Sea Level Pressure  
Sea Level Pressure 29.98 in    
Wind  
Wind Speed 4 mph (NW)    
Max Wind Speed 14 mph    
Max Gust Speed 20 mph    
Visibility 10 miles    
Events      
T = Trace of Precipitation, MM = Missing Value Source: NWS Daily Summary

Daily Weather History Graph

Daily Weather History Graph

Search for Another Location

Airport or City:

Astronomy

May. 27, 2019 Rise Set
Actual Time 5:48 AM EDT 8:33 PM EDT
Civil Twilight 5:16 AM EDT 9:05 PM EDT
Nautical Twilight 4:36 AM EDT 9:45 PM EDT
Astronomical Twilight 3:50 AM EDT 10:30 PM EDT
Moon 2:32 AM EDT (5/27) 1:42 PM EDT (5/27)
Length of Visible Light 15h 48m
Length of Day
14h 44m
Last Quarter, 41% of the Moon is Illuminated
May 27
Last Quarter
Jun 3
New
Jun 10
First Quarter
Jun 17
Full
Jun 25
Last Quarter

Hourly Weather History & Observations

Time (EDT) Temp. Dew Point Humidity Pressure Visibility Wind Dir Wind Speed Gust Speed Precip Events Conditions
12:53 AM 64.0 °F 60.1 °F 87% 29.98 in 10.0 mi WNW 6.9 mph - N/A   Clear
1:53 AM 64.9 °F 60.1 °F 84% 29.98 in 10.0 mi NW 3.5 mph - N/A   Partly Cloudy
2:53 AM 64.0 °F 59.0 °F 84% 29.96 in 10.0 mi NW 5.8 mph - N/A   Mostly Cloudy
3:53 AM 64.9 °F 60.1 °F 84% 29.97 in 9.0 mi NW 4.6 mph - N/A   Overcast
4:16 AM 64.9 °F 60.1 °F 84% 29.99 in 10.0 mi Calm Calm - N/A   Overcast
4:53 AM 64.0 °F 60.1 °F 87% 29.96 in 10.0 mi WNW 5.8 mph - N/A   Mostly Cloudy
5:07 AM 64.0 °F 60.1 °F 87% 29.99 in 10.0 mi NNW 5.8 mph - N/A   Mostly Cloudy
5:28 AM 64.9 °F 60.1 °F 84% 29.99 in 10.0 mi North 5.8 mph - N/A   Overcast
5:53 AM 64.9 °F 60.1 °F 84% 29.98 in 10.0 mi Calm Calm - N/A   Overcast
6:53 AM 64.9 °F 60.1 °F 84% 30.01 in 10.0 mi Calm Calm - N/A   Overcast
7:53 AM 66.0 °F 61.0 °F 84% 30.02 in 10.0 mi NE 3.5 mph - N/A   Overcast
8:53 AM 66.9 °F 59.0 °F 76% 30.03 in 10.0 mi Variable 3.5 mph - N/A   Mostly Cloudy
9:32 AM 69.1 °F 59.0 °F 70% 30.05 in 10.0 mi Variable 5.8 mph - N/A   Mostly Cloudy
9:43 AM 69.1 °F 59.0 °F 70% 30.05 in 10.0 mi Variable 3.5 mph - N/A   Overcast
9:51 AM 69.8 °F 57.2 °F 64% 30.05 in 10.0 mi NW 6.9 mph - N/A   Mostly Cloudy
9:53 AM 69.1 °F 57.9 °F 68% 30.02 in 10.0 mi Variable 5.8 mph - N/A   Mostly Cloudy
10:53 AM 71.1 °F 57.9 °F 63% 30.02 in 10.0 mi WNW 5.8 mph - N/A   Scattered Clouds
11:53 AM 72.0 °F 55.9 °F 57% 30.00 in 10.0 mi NNW 8.1 mph - N/A   Mostly Cloudy
12:53 PM 73.9 °F 55.0 °F 52% 30.00 in 10.0 mi Variable 4.6 mph - N/A   Mostly Cloudy
1:53 PM 75.0 °F 55.0 °F 50% 29.98 in 10.0 mi NNW 9.2 mph - N/A   Partly Cloudy
2:53 PM 77.0 °F 53.1 °F 43% 29.97 in 10.0 mi Calm Calm - N/A   Clear
3:53 PM 77.0 °F 53.1 °F 43% 29.95 in 10.0 mi WNW 4.6 mph - N/A   Partly Cloudy
4:53 PM 78.1 °F 53.1 °F 42% 29.94 in 10.0 mi NW 6.9 mph - N/A   Clear
5:53 PM 77.0 °F 51.1 °F 40% 29.94 in 10.0 mi West 10.4 mph - N/A   Scattered Clouds
6:53 PM 75.0 °F 51.1 °F 43% 29.94 in 10.0 mi WNW 6.9 mph - N/A   Clear
7:53 PM 73.0 °F 51.1 °F 46% 29.96 in 10.0 mi WNW 5.8 mph - N/A   Clear
8:53 PM 69.1 °F 52.0 °F 54% 29.96 in 10.0 mi Calm Calm - N/A   Clear
9:53 PM 64.9 °F 54.0 °F 68% 29.95 in 10.0 mi Calm Calm - N/A   Clear
10:53 PM 63.0 °F 54.0 °F 72% 29.93 in 10.0 mi Calm Calm - N/A   Clear
11:53 PM 62.1 °F 53.1 °F 72% 29.92 in 10.0 mi West 3.5 mph - N/A   Clear